Location: Hurstbourne Priors
(51.2000°N, 1.3667°W)
Time: 19:05:59
(UTC+00:00)

Transit 4A - Pass Details

Date: 27 April 2021
Orbit: 870 x 974 km, 66.8° (Epoch: 09 May)

Event Time Altitude Azimuth Distance (km) Brightness Sun altitude
Rises 00:12:47 0° 256° (WSW) 3,603 - -24.9°
Exits shadow 00:13:15 - 257° (WSW) 3,445 10.7 -24.9°
Reaches altitude 10° 00:15:39 10° 266° (W) 2,644 10.2 -24.9°
Maximum altitude 00:21:04 31° 328° (NNW) 1,546 9.5 -24.8°
Drops below altitude 10° 00:26:23 10° 30° (NNE) 2,588 11.1 -24.8°
Sets 00:29:10 0° 41° (NE) 3,515 11.8 -24.7°
